Index of /20260504/WXO-DD/model_rdps/10km/00/043
Name Last modified Size Description
Parent Directory -
20260504T00Z_MSC_RDPS_AbsoluteVorticity_IsbL-0250_RLatLon0.09_PT043H.grib2 2026-05-04 02:54 751K
20260504T00Z_MSC_RDPS_AbsoluteVorticity_IsbL-0500_RLatLon0.09_PT043H.grib2 2026-05-04 02:54 567K
20260504T00Z_MSC_RDPS_AbsoluteVorticity_IsbL-0700_RLatLon0.09_PT043H.grib2 2026-05-04 02:54 616K
20260504T00Z_MSC_RDPS_AbsoluteVorticity_IsbL-0850_RLatLon0.09_PT043H.grib2 2026-05-04 02:54 795K
20260504T00Z_MSC_RDPS_AirTemp_AGL-120m_RLatLon0.09_PT043H.grib2 2026-05-04 02:54 395K
20260504T00Z_MSC_RDPS_AirTemp_AGL-2m_RLatLon0.09_PT043H.grib2 2026-05-04 02:54 631K
20260504T00Z_MSC_RDPS_AirTemp_AGL-40m_RLatLon0.09_PT043H.grib2 2026-05-04 02:54 404K
20260504T00Z_MSC_RDPS_AirTemp_AGL-80m_RLatLon0.09_PT043H.grib2 2026-05-04 02:54 399K
20260504T00Z_MSC_RDPS_AirTemp_IsbL-0001_RLatLon0.09_PT043H.grib2 2026-05-04 02:54 328K
20260504T00Z_MSC_RDPS_AirTemp_IsbL-0005_RLatLon0.09_PT043H.grib2 2026-05-04 02:54 292K
20260504T00Z_MSC_RDPS_AirTemp_IsbL-0010_RLatLon0.09_PT043H.grib2 2026-05-04 02:54 304K
20260504T00Z_MSC_RDPS_AirTemp_IsbL-0020_RLatLon0.09_PT043H.grib2 2026-05-04 02:54 319K
20260504T00Z_MSC_RDPS_AirTemp_IsbL-0030_RLatLon0.09_PT043H.grib2 2026-05-04 02:54 339K
20260504T00Z_MSC_RDPS_AirTemp_IsbL-0050_RLatLon0.09_PT043H.grib2 2026-05-04 02:54 318K
20260504T00Z_MSC_RDPS_AirTemp_IsbL-0100_RLatLon0.09_PT043H.grib2 2026-05-04 02:54 427K
20260504T00Z_MSC_RDPS_AirTemp_IsbL-0150_RLatLon0.09_PT043H.grib2 2026-05-04 02:54 423K
20260504T00Z_MSC_RDPS_AirTemp_IsbL-0175_RLatLon0.09_PT043H.grib2 2026-05-04 02:54 414K
20260504T00Z_MSC_RDPS_AirTemp_IsbL-0200_RLatLon0.09_PT043H.grib2 2026-05-04 02:54 415K
20260504T00Z_MSC_RDPS_AirTemp_IsbL-0225_RLatLon0.09_PT043H.grib2 2026-05-04 02:54 412K
20260504T00Z_MSC_RDPS_AirTemp_IsbL-0250_RLatLon0.09_PT043H.grib2 2026-05-04 02:54 417K
20260504T00Z_MSC_RDPS_AirTemp_IsbL-0275_RLatLon0.09_PT043H.grib2 2026-05-04 02:54 400K
20260504T00Z_MSC_RDPS_AirTemp_IsbL-0300_RLatLon0.09_PT043H.grib2 2026-05-04 02:54 408K
20260504T00Z_MSC_RDPS_AirTemp_IsbL-0350_RLatLon0.09_PT043H.grib2 2026-05-04 02:54 426K
20260504T00Z_MSC_RDPS_AirTemp_IsbL-0400_RLatLon0.09_PT043H.grib2 2026-05-04 02:54 429K
20260504T00Z_MSC_RDPS_AirTemp_IsbL-0450_RLatLon0.09_PT043H.grib2 2026-05-04 02:54 436K
20260504T00Z_MSC_RDPS_AirTemp_IsbL-0500_RLatLon0.09_PT043H.grib2 2026-05-04 02:54 447K
20260504T00Z_MSC_RDPS_AirTemp_IsbL-0550_RLatLon0.09_PT043H.grib2 2026-05-04 02:54 465K
20260504T00Z_MSC_RDPS_AirTemp_IsbL-0600_RLatLon0.09_PT043H.grib2 2026-05-04 02:54 447K
20260504T00Z_MSC_RDPS_AirTemp_IsbL-0650_RLatLon0.09_PT043H.grib2 2026-05-04 02:54 466K
20260504T00Z_MSC_RDPS_AirTemp_IsbL-0700_RLatLon0.09_PT043H.grib2 2026-05-04 02:54 493K
20260504T00Z_MSC_RDPS_AirTemp_IsbL-0750_RLatLon0.09_PT043H.grib2 2026-05-04 02:54 533K
20260504T00Z_MSC_RDPS_AirTemp_IsbL-0800_RLatLon0.09_PT043H.grib2 2026-05-04 02:54 464K
20260504T00Z_MSC_RDPS_AirTemp_IsbL-0850_RLatLon0.09_PT043H.grib2 2026-05-04 02:54 514K
20260504T00Z_MSC_RDPS_AirTemp_IsbL-0875_RLatLon0.09_PT043H.grib2 2026-05-04 02:54 533K
20260504T00Z_MSC_RDPS_AirTemp_IsbL-0900_RLatLon0.09_PT043H.grib2 2026-05-04 02:54 541K
20260504T00Z_MSC_RDPS_AirTemp_IsbL-0925_RLatLon0.09_PT043H.grib2 2026-05-04 02:54 535K
20260504T00Z_MSC_RDPS_AirTemp_IsbL-0950_RLatLon0.09_PT043H.grib2 2026-05-04 02:54 532K
20260504T00Z_MSC_RDPS_AirTemp_IsbL-0970_RLatLon0.09_PT043H.grib2 2026-05-04 02:54 525K
20260504T00Z_MSC_RDPS_AirTemp_IsbL-0985_RLatLon0.09_PT043H.grib2 2026-05-04 02:54 514K
20260504T00Z_MSC_RDPS_AirTemp_IsbL-1000_RLatLon0.09_PT043H.grib2 2026-05-04 02:54 498K
20260504T00Z_MSC_RDPS_AirTemp_IsbL-1015_RLatLon0.09_PT043H.grib2 2026-05-04 02:54 503K
20260504T00Z_MSC_RDPS_Albedo_Sfc_RLatLon0.09_PT043H.grib2 2026-05-04 02:54 157K
20260504T00Z_MSC_RDPS_CAPE_Sfc_RLatLon0.09_PT043H.grib2 2026-05-04 02:54 1.8M
20260504T00Z_MSC_RDPS_CIN_Sfc_RLatLon0.09_PT043H.grib2 2026-05-04 02:54 1.3M
20260504T00Z_MSC_RDPS_CloudWater_EAtm_RLatLon0.09_PT043H.grib2 2026-05-04 02:54 222K
20260504T00Z_MSC_RDPS_ConvectivePrecip-Accum_Sfc_RLatLon0.09_PT043H.grib2 2026-05-04 02:54 1.0M
20260504T00Z_MSC_RDPS_DewPointDepression_AGL-2m_RLatLon0.09_PT043H.grib2 2026-05-04 02:54 424K
20260504T00Z_MSC_RDPS_DewPointDepression_IsbL-0001_RLatLon0.09_PT043H.grib2 2026-05-04 02:54 193
20260504T00Z_MSC_RDPS_DewPointDepression_IsbL-0005_RLatLon0.09_PT043H.grib2 2026-05-04 02:54 193
20260504T00Z_MSC_RDPS_DewPointDepression_IsbL-0010_RLatLon0.09_PT043H.grib2 2026-05-04 02:54 193
20260504T00Z_MSC_RDPS_DewPointDepression_IsbL-0020_RLatLon0.09_PT043H.grib2 2026-05-04 02:54 193
20260504T00Z_MSC_RDPS_DewPointDepression_IsbL-0030_RLatLon0.09_PT043H.grib2 2026-05-04 02:54 193
20260504T00Z_MSC_RDPS_DewPointDepression_IsbL-0050_RLatLon0.09_PT043H.grib2 2026-05-04 02:54 77K
20260504T00Z_MSC_RDPS_DewPointDepression_IsbL-0100_RLatLon0.09_PT043H.grib2 2026-05-04 02:54 114K
20260504T00Z_MSC_RDPS_DewPointDepression_IsbL-0150_RLatLon0.09_PT043H.grib2 2026-05-04 02:54 147K
20260504T00Z_MSC_RDPS_DewPointDepression_IsbL-0175_RLatLon0.09_PT043H.grib2 2026-05-04 02:54 186K
20260504T00Z_MSC_RDPS_DewPointDepression_IsbL-0200_RLatLon0.09_PT043H.grib2 2026-05-04 02:54 224K
20260504T00Z_MSC_RDPS_DewPointDepression_IsbL-0225_RLatLon0.09_PT043H.grib2 2026-05-04 02:54 255K
20260504T00Z_MSC_RDPS_DewPointDepression_IsbL-0250_RLatLon0.09_PT043H.grib2 2026-05-04 02:54 296K
20260504T00Z_MSC_RDPS_DewPointDepression_IsbL-0275_RLatLon0.09_PT043H.grib2 2026-05-04 02:54 306K
20260504T00Z_MSC_RDPS_DewPointDepression_IsbL-0300_RLatLon0.09_PT043H.grib2 2026-05-04 02:54 326K
20260504T00Z_MSC_RDPS_DewPointDepression_IsbL-0350_RLatLon0.09_PT043H.grib2 2026-05-04 02:54 330K
20260504T00Z_MSC_RDPS_DewPointDepression_IsbL-0400_RLatLon0.09_PT043H.grib2 2026-05-04 02:54 338K
20260504T00Z_MSC_RDPS_DewPointDepression_IsbL-0450_RLatLon0.09_PT043H.grib2 2026-05-04 02:54 345K
20260504T00Z_MSC_RDPS_DewPointDepression_IsbL-0500_RLatLon0.09_PT043H.grib2 2026-05-04 02:54 349K
20260504T00Z_MSC_RDPS_DewPointDepression_IsbL-0550_RLatLon0.09_PT043H.grib2 2026-05-04 02:54 360K
20260504T00Z_MSC_RDPS_DewPointDepression_IsbL-0600_RLatLon0.09_PT043H.grib2 2026-05-04 02:54 370K
20260504T00Z_MSC_RDPS_DewPointDepression_IsbL-0650_RLatLon0.09_PT043H.grib2 2026-05-04 02:54 377K
20260504T00Z_MSC_RDPS_DewPointDepression_IsbL-0700_RLatLon0.09_PT043H.grib2 2026-05-04 02:54 390K
20260504T00Z_MSC_RDPS_DewPointDepression_IsbL-0750_RLatLon0.09_PT043H.grib2 2026-05-04 02:54 412K
20260504T00Z_MSC_RDPS_DewPointDepression_IsbL-0800_RLatLon0.09_PT043H.grib2 2026-05-04 02:54 445K
20260504T00Z_MSC_RDPS_DewPointDepression_IsbL-0850_RLatLon0.09_PT043H.grib2 2026-05-04 02:54 480K
20260504T00Z_MSC_RDPS_DewPointDepression_IsbL-0875_RLatLon0.09_PT043H.grib2 2026-05-04 02:54 480K
20260504T00Z_MSC_RDPS_DewPointDepression_IsbL-0900_RLatLon0.09_PT043H.grib2 2026-05-04 02:54 472K
20260504T00Z_MSC_RDPS_DewPointDepression_IsbL-0925_RLatLon0.09_PT043H.grib2 2026-05-04 02:54 457K
20260504T00Z_MSC_RDPS_DewPointDepression_IsbL-0950_RLatLon0.09_PT043H.grib2 2026-05-04 02:54 447K
20260504T00Z_MSC_RDPS_DewPointDepression_IsbL-0970_RLatLon0.09_PT043H.grib2 2026-05-04 02:54 443K
20260504T00Z_MSC_RDPS_DewPointDepression_IsbL-0985_RLatLon0.09_PT043H.grib2 2026-05-04 02:54 441K
20260504T00Z_MSC_RDPS_DewPointDepression_IsbL-1000_RLatLon0.09_PT043H.grib2 2026-05-04 02:54 436K
20260504T00Z_MSC_RDPS_DewPointDepression_IsbL-1015_RLatLon0.09_PT043H.grib2 2026-05-04 02:54 429K
20260504T00Z_MSC_RDPS_DewPoint_AGL-2m_RLatLon0.09_PT043H.grib2 2026-05-04 02:54 398K
20260504T00Z_MSC_RDPS_DownwardLongwaveRadiationFlux-Accum_Sfc_RLatLon0.09_PT043H.grib2 2026-05-04 02:54 361K
20260504T00Z_MSC_RDPS_DownwardShortwaveRadiationFlux-Accum_NTAtm_RLatLon0.09_PT043H.grib2 2026-05-04 02:54 124K
20260504T00Z_MSC_RDPS_DownwardShortwaveRadiationFlux-Accum_Sfc_RLatLon0.09_PT043H.grib2 2026-05-04 02:54 544K
20260504T00Z_MSC_RDPS_FreezingRain-Accum1h_Sfc_RLatLon0.09_PT043H.grib2 2026-05-04 02:54 21K
20260504T00Z_MSC_RDPS_FreezingRain-Accum_Sfc_RLatLon0.09_PT043H.grib2 2026-05-04 02:54 152K
20260504T00Z_MSC_RDPS_GeopotentialHeight_IsbL-0001_RLatLon0.09_PT043H.grib2 2026-05-04 02:54 355K
20260504T00Z_MSC_RDPS_GeopotentialHeight_IsbL-0005_RLatLon0.09_PT043H.grib2 2026-05-04 02:54 311K
20260504T00Z_MSC_RDPS_GeopotentialHeight_IsbL-0010_RLatLon0.09_PT043H.grib2 2026-05-04 02:54 312K
20260504T00Z_MSC_RDPS_GeopotentialHeight_IsbL-0020_RLatLon0.09_PT043H.grib2 2026-05-04 02:54 311K
20260504T00Z_MSC_RDPS_GeopotentialHeight_IsbL-0030_RLatLon0.09_PT043H.grib2 2026-05-04 02:54 411K
20260504T00Z_MSC_RDPS_GeopotentialHeight_IsbL-0050_RLatLon0.09_PT043H.grib2 2026-05-04 02:54 313K
20260504T00Z_MSC_RDPS_GeopotentialHeight_IsbL-0100_RLatLon0.09_PT043H.grib2 2026-05-04 02:54 288K
20260504T00Z_MSC_RDPS_GeopotentialHeight_IsbL-0150_RLatLon0.09_PT043H.grib2 2026-05-04 02:54 230K
20260504T00Z_MSC_RDPS_GeopotentialHeight_IsbL-0175_RLatLon0.09_PT043H.grib2 2026-05-04 02:54 233K
20260504T00Z_MSC_RDPS_GeopotentialHeight_IsbL-0200_RLatLon0.09_PT043H.grib2 2026-05-04 02:54 237K
20260504T00Z_MSC_RDPS_GeopotentialHeight_IsbL-0225_RLatLon0.09_PT043H.grib2 2026-05-04 02:54 238K
20260504T00Z_MSC_RDPS_GeopotentialHeight_IsbL-0250_RLatLon0.09_PT043H.grib2 2026-05-04 02:54 238K
20260504T00Z_MSC_RDPS_GeopotentialHeight_IsbL-0275_RLatLon0.09_PT043H.grib2 2026-05-04 02:54 237K
20260504T00Z_MSC_RDPS_GeopotentialHeight_IsbL-0300_RLatLon0.09_PT043H.grib2 2026-05-04 02:54 237K
20260504T00Z_MSC_RDPS_GeopotentialHeight_IsbL-0350_RLatLon0.09_PT043H.grib2 2026-05-04 02:54 233K
20260504T00Z_MSC_RDPS_GeopotentialHeight_IsbL-0400_RLatLon0.09_PT043H.grib2 2026-05-04 02:54 230K
20260504T00Z_MSC_RDPS_GeopotentialHeight_IsbL-0450_RLatLon0.09_PT043H.grib2 2026-05-04 02:54 300K
20260504T00Z_MSC_RDPS_GeopotentialHeight_IsbL-0500_RLatLon0.09_PT043H.grib2 2026-05-04 02:54 296K
20260504T00Z_MSC_RDPS_GeopotentialHeight_IsbL-0550_RLatLon0.09_PT043H.grib2 2026-05-04 02:54 292K
20260504T00Z_MSC_RDPS_GeopotentialHeight_IsbL-0600_RLatLon0.09_PT043H.grib2 2026-05-04 02:54 290K
20260504T00Z_MSC_RDPS_GeopotentialHeight_IsbL-0650_RLatLon0.09_PT043H.grib2 2026-05-04 02:54 262K
20260504T00Z_MSC_RDPS_GeopotentialHeight_IsbL-0700_RLatLon0.09_PT043H.grib2 2026-05-04 02:54 261K
20260504T00Z_MSC_RDPS_GeopotentialHeight_IsbL-0750_RLatLon0.09_PT043H.grib2 2026-05-04 02:54 348K
20260504T00Z_MSC_RDPS_GeopotentialHeight_IsbL-0800_RLatLon0.09_PT043H.grib2 2026-05-04 02:54 356K
20260504T00Z_MSC_RDPS_GeopotentialHeight_IsbL-0850_RLatLon0.09_PT043H.grib2 2026-05-04 02:54 365K
20260504T00Z_MSC_RDPS_GeopotentialHeight_IsbL-0875_RLatLon0.09_PT043H.grib2 2026-05-04 02:54 368K
20260504T00Z_MSC_RDPS_GeopotentialHeight_IsbL-0900_RLatLon0.09_PT043H.grib2 2026-05-04 02:54 371K
20260504T00Z_MSC_RDPS_GeopotentialHeight_IsbL-0925_RLatLon0.09_PT043H.grib2 2026-05-04 02:54 373K
20260504T00Z_MSC_RDPS_GeopotentialHeight_IsbL-0950_RLatLon0.09_PT043H.grib2 2026-05-04 02:54 290K
20260504T00Z_MSC_RDPS_GeopotentialHeight_IsbL-0970_RLatLon0.09_PT043H.grib2 2026-05-04 02:54 294K
20260504T00Z_MSC_RDPS_GeopotentialHeight_IsbL-0985_RLatLon0.09_PT043H.grib2 2026-05-04 02:54 301K
20260504T00Z_MSC_RDPS_GeopotentialHeight_IsbL-1000_RLatLon0.09_PT043H.grib2 2026-05-04 02:54 310K
20260504T00Z_MSC_RDPS_GeopotentialHeight_IsbL-1015_RLatLon0.09_PT043H.grib2 2026-05-04 02:54 323K
20260504T00Z_MSC_RDPS_Humidex_Sfc_RLatLon0.09_PT043H.grib2 2026-05-04 02:54 2.4M
20260504T00Z_MSC_RDPS_IcePellets-Accum1h_Sfc_RLatLon0.09_PT043H.grib2 2026-05-04 02:54 7.6K
20260504T00Z_MSC_RDPS_IcePellets-Accum_Sfc_RLatLon0.09_PT043H.grib2 2026-05-04 02:54 34K
20260504T00Z_MSC_RDPS_KIndex_Sfc_RLatLon0.09_PT043H.grib2 2026-05-04 02:54 2.5M
20260504T00Z_MSC_RDPS_LatentHeatNetFlux_Sfc_RLatLon0.09_PT043H.grib2 2026-05-04 02:54 319K
20260504T00Z_MSC_RDPS_LiftedIndex-MU-VT_IsbL-0500_RLatLon0.09_PT043H.grib2 2026-05-04 02:54 2.4M
20260504T00Z_MSC_RDPS_NetLongwaveRadiationFlux-Accum_Sfc_RLatLon0.09_PT043H.grib2 2026-05-04 02:54 533K
20260504T00Z_MSC_RDPS_NetShortwaveRadiationFlux-Accum_Sfc_RLatLon0.09_PT043H.grib2 2026-05-04 02:54 541K
20260504T00Z_MSC_RDPS_PlanetaryBoundaryLayerHeight_Sfc_RLatLon0.09_PT043H.grib2 2026-05-04 02:54 1.0M
20260504T00Z_MSC_RDPS_Precip-Accum1h_Sfc_RLatLon0.09_PT043H.grib2 2026-05-04 02:54 1.3M
20260504T00Z_MSC_RDPS_Precip-Accum_Sfc_RLatLon0.09_PT043H.grib2 2026-05-04 02:54 2.1M
20260504T00Z_MSC_RDPS_PrecipRate_Sfc_RLatLon0.09_PT043H.grib2 2026-05-04 02:54 194K
20260504T00Z_MSC_RDPS_PrecipType-Instant_Sfc_RLatLon0.09_PT043H.grib2 2026-05-04 02:54 599K
20260504T00Z_MSC_RDPS_Pressure-Trend3h_Sfc_RLatLon0.09_PT043H.grib2 2026-05-04 02:54 1.2M
20260504T00Z_MSC_RDPS_Pressure_MSL_RLatLon0.09_PT043H.grib2 2026-05-04 02:54 334K
20260504T00Z_MSC_RDPS_Pressure_PVU-1.5_RLatLon0.09_PT043H.grib2 2026-05-04 02:54 2.5M
20260504T00Z_MSC_RDPS_Pressure_PVU-1_RLatLon0.09_PT043H.grib2 2026-05-04 02:54 2.4M
20260504T00Z_MSC_RDPS_Pressure_PVU-2_RLatLon0.09_PT043H.grib2 2026-05-04 02:54 2.4M
20260504T00Z_MSC_RDPS_Pressure_Sfc_RLatLon0.09_PT043H.grib2 2026-05-04 02:54 499K
20260504T00Z_MSC_RDPS_RadiativeTemp_Sfc_RLatLon0.09_PT043H.grib2 2026-05-04 02:54 325K
20260504T00Z_MSC_RDPS_Rain-Accum1h_Sfc_RLatLon0.09_PT043H.grib2 2026-05-04 02:54 674K
20260504T00Z_MSC_RDPS_Rain-Accum_Sfc_RLatLon0.09_PT043H.grib2 2026-05-04 02:54 1.7M
20260504T00Z_MSC_RDPS_RelativeHumidity_AGL-2m_RLatLon0.09_PT043H.grib2 2026-05-04 02:54 1.0M
20260504T00Z_MSC_RDPS_RelativeHumidity_IsbL-0010_RLatLon0.09_PT043H.grib2 2026-05-04 02:54 695K
20260504T00Z_MSC_RDPS_RelativeHumidity_IsbL-0020_RLatLon0.09_PT043H.grib2 2026-05-04 02:54 748K
20260504T00Z_MSC_RDPS_RelativeHumidity_IsbL-0030_RLatLon0.09_PT043H.grib2 2026-05-04 02:54 604K
20260504T00Z_MSC_RDPS_RelativeHumidity_IsbL-0050_RLatLon0.09_PT043H.grib2 2026-05-04 02:54 360K
20260504T00Z_MSC_RDPS_RelativeHumidity_IsbL-0100_RLatLon0.09_PT043H.grib2 2026-05-04 02:54 275K
20260504T00Z_MSC_RDPS_RelativeHumidity_IsbL-0150_RLatLon0.09_PT043H.grib2 2026-05-04 02:54 424K
20260504T00Z_MSC_RDPS_RelativeHumidity_IsbL-0175_RLatLon0.09_PT043H.grib2 2026-05-04 02:54 492K
20260504T00Z_MSC_RDPS_RelativeHumidity_IsbL-0200_RLatLon0.09_PT043H.grib2 2026-05-04 02:54 565K
20260504T00Z_MSC_RDPS_RelativeHumidity_IsbL-0225_RLatLon0.09_PT043H.grib2 2026-05-04 02:54 620K
20260504T00Z_MSC_RDPS_RelativeHumidity_IsbL-0250_RLatLon0.09_PT043H.grib2 2026-05-04 02:54 680K
20260504T00Z_MSC_RDPS_RelativeHumidity_IsbL-0275_RLatLon0.09_PT043H.grib2 2026-05-04 02:54 705K
20260504T00Z_MSC_RDPS_RelativeHumidity_IsbL-0300_RLatLon0.09_PT043H.grib2 2026-05-04 02:54 752K
20260504T00Z_MSC_RDPS_RelativeHumidity_IsbL-0350_RLatLon0.09_PT043H.grib2 2026-05-04 02:54 774K
20260504T00Z_MSC_RDPS_RelativeHumidity_IsbL-0400_RLatLon0.09_PT043H.grib2 2026-05-04 02:54 787K
20260504T00Z_MSC_RDPS_RelativeHumidity_IsbL-0450_RLatLon0.09_PT043H.grib2 2026-05-04 02:54 795K
20260504T00Z_MSC_RDPS_RelativeHumidity_IsbL-0500_RLatLon0.09_PT043H.grib2 2026-05-04 02:54 797K
20260504T00Z_MSC_RDPS_RelativeHumidity_IsbL-0550_RLatLon0.09_PT043H.grib2 2026-05-04 02:54 810K
20260504T00Z_MSC_RDPS_RelativeHumidity_IsbL-0600_RLatLon0.09_PT043H.grib2 2026-05-04 02:54 837K
20260504T00Z_MSC_RDPS_RelativeHumidity_IsbL-0650_RLatLon0.09_PT043H.grib2 2026-05-04 02:54 842K
20260504T00Z_MSC_RDPS_RelativeHumidity_IsbL-0700_RLatLon0.09_PT043H.grib2 2026-05-04 02:54 872K
20260504T00Z_MSC_RDPS_RelativeHumidity_IsbL-0750_RLatLon0.09_PT043H.grib2 2026-05-04 02:54 928K
20260504T00Z_MSC_RDPS_RelativeHumidity_IsbL-0800_RLatLon0.09_PT043H.grib2 2026-05-04 02:54 1.0M
20260504T00Z_MSC_RDPS_RelativeHumidity_IsbL-0850_RLatLon0.09_PT043H.grib2 2026-05-04 02:54 1.0M
20260504T00Z_MSC_RDPS_RelativeHumidity_IsbL-0875_RLatLon0.09_PT043H.grib2 2026-05-04 02:54 1.1M
20260504T00Z_MSC_RDPS_RelativeHumidity_IsbL-0900_RLatLon0.09_PT043H.grib2 2026-05-04 02:54 1.1M
20260504T00Z_MSC_RDPS_RelativeHumidity_IsbL-0925_RLatLon0.09_PT043H.grib2 2026-05-04 02:54 1.1M
20260504T00Z_MSC_RDPS_RelativeHumidity_IsbL-0950_RLatLon0.09_PT043H.grib2 2026-05-04 02:54 1.1M
20260504T00Z_MSC_RDPS_RelativeHumidity_IsbL-0970_RLatLon0.09_PT043H.grib2 2026-05-04 02:54 1.1M
20260504T00Z_MSC_RDPS_RelativeHumidity_IsbL-0985_RLatLon0.09_PT043H.grib2 2026-05-04 02:54 1.0M
20260504T00Z_MSC_RDPS_RelativeHumidity_IsbL-1000_RLatLon0.09_PT043H.grib2 2026-05-04 02:54 1.0M
20260504T00Z_MSC_RDPS_RelativeHumidity_IsbL-1015_RLatLon0.09_PT043H.grib2 2026-05-04 02:54 1.0M
20260504T00Z_MSC_RDPS_Runoff-Accum_Sfc_RLatLon0.09_PT043H.grib2 2026-05-04 02:54 50K
20260504T00Z_MSC_RDPS_SWEATIndex_Sfc_RLatLon0.09_PT043H.grib2 2026-05-04 02:54 2.4M
20260504T00Z_MSC_RDPS_SeeingIndex_EAtm_RLatLon0.09_PT043H.grib2 2026-05-04 02:54 1.0M
20260504T00Z_MSC_RDPS_SensibleHeatNetFlux_Sfc_RLatLon0.09_PT043H.grib2 2026-05-04 02:54 371K
20260504T00Z_MSC_RDPS_ShowalterIndex_IsbL-0500_RLatLon0.09_PT043H.grib2 2026-05-04 02:54 2.6M
20260504T00Z_MSC_RDPS_SkyTransparencyIndex_EAtm_RLatLon0.09_PT043H.grib2 2026-05-04 02:54 692K
20260504T00Z_MSC_RDPS_Snow-Accum1h_Sfc_RLatLon0.09_PT043H.grib2 2026-05-04 02:54 466K
20260504T00Z_MSC_RDPS_Snow-Accum_Sfc_RLatLon0.09_PT043H.grib2 2026-05-04 02:54 767K
20260504T00Z_MSC_RDPS_SnowDensity_Sfc_RLatLon0.09_PT043H.grib2 2026-05-04 02:54 173K
20260504T00Z_MSC_RDPS_SnowDepth_Sfc_RLatLon0.09_PT043H.grib2 2026-05-04 02:54 652K
20260504T00Z_MSC_RDPS_SoilTemp_DBS-0to10cm_RLatLon0.09_PT043H.grib2 2026-05-04 02:54 239K
20260504T00Z_MSC_RDPS_SoilTemp_Sfc_RLatLon0.09_PT043H.grib2 2026-05-04 02:54 289K
20260504T00Z_MSC_RDPS_SoilVolumetricIceContent_Sfc_RLatLon0.09_PT043H.grib2 2026-05-04 02:54 153K
20260504T00Z_MSC_RDPS_SoilVolumetricWaterContent_DBS-0to10cm_RLatLon0.09_PT043H.grib2 2026-05-04 02:54 277K
20260504T00Z_MSC_RDPS_SoilVolumetricWaterContent_DBS-0to1cm_RLatLon0.09_PT043H.grib2 2026-05-04 02:54 341K
20260504T00Z_MSC_RDPS_SpecificHumidity_AGL-120m_RLatLon0.09_PT043H.grib2 2026-05-04 02:54 500K
20260504T00Z_MSC_RDPS_SpecificHumidity_AGL-2m_RLatLon0.09_PT043H.grib2 2026-05-04 02:54 672K
20260504T00Z_MSC_RDPS_SpecificHumidity_AGL-40m_RLatLon0.09_PT043H.grib2 2026-05-04 02:54 505K
20260504T00Z_MSC_RDPS_SpecificHumidity_AGL-80m_RLatLon0.09_PT043H.grib2 2026-05-04 02:54 501K
20260504T00Z_MSC_RDPS_SpecificHumidity_IsbL-0001_RLatLon0.09_PT043H.grib2 2026-05-04 02:54 414K
20260504T00Z_MSC_RDPS_SpecificHumidity_IsbL-0005_RLatLon0.09_PT043H.grib2 2026-05-04 02:54 372K
20260504T00Z_MSC_RDPS_SpecificHumidity_IsbL-0010_RLatLon0.09_PT043H.grib2 2026-05-04 02:54 402K
20260504T00Z_MSC_RDPS_SpecificHumidity_IsbL-0020_RLatLon0.09_PT043H.grib2 2026-05-04 02:54 384K
20260504T00Z_MSC_RDPS_SpecificHumidity_IsbL-0030_RLatLon0.09_PT043H.grib2 2026-05-04 02:54 377K
20260504T00Z_MSC_RDPS_SpecificHumidity_IsbL-0050_RLatLon0.09_PT043H.grib2 2026-05-04 02:54 457K
20260504T00Z_MSC_RDPS_SpecificHumidity_IsbL-0100_RLatLon0.09_PT043H.grib2 2026-05-04 02:54 416K
20260504T00Z_MSC_RDPS_SpecificHumidity_IsbL-0150_RLatLon0.09_PT043H.grib2 2026-05-04 02:54 462K
20260504T00Z_MSC_RDPS_SpecificHumidity_IsbL-0175_RLatLon0.09_PT043H.grib2 2026-05-04 02:54 454K
20260504T00Z_MSC_RDPS_SpecificHumidity_IsbL-0200_RLatLon0.09_PT043H.grib2 2026-05-04 02:54 466K
20260504T00Z_MSC_RDPS_SpecificHumidity_IsbL-0225_RLatLon0.09_PT043H.grib2 2026-05-04 02:54 459K
20260504T00Z_MSC_RDPS_SpecificHumidity_IsbL-0250_RLatLon0.09_PT043H.grib2 2026-05-04 02:54 561K
20260504T00Z_MSC_RDPS_SpecificHumidity_IsbL-0275_RLatLon0.09_PT043H.grib2 2026-05-04 02:54 478K
20260504T00Z_MSC_RDPS_SpecificHumidity_IsbL-0300_RLatLon0.09_PT043H.grib2 2026-05-04 02:54 554K
20260504T00Z_MSC_RDPS_SpecificHumidity_IsbL-0350_RLatLon0.09_PT043H.grib2 2026-05-04 02:54 546K
20260504T00Z_MSC_RDPS_SpecificHumidity_IsbL-0400_RLatLon0.09_PT043H.grib2 2026-05-04 02:54 525K
20260504T00Z_MSC_RDPS_SpecificHumidity_IsbL-0450_RLatLon0.09_PT043H.grib2 2026-05-04 02:54 577K
20260504T00Z_MSC_RDPS_SpecificHumidity_IsbL-0500_RLatLon0.09_PT043H.grib2 2026-05-04 02:54 508K
20260504T00Z_MSC_RDPS_SpecificHumidity_IsbL-0550_RLatLon0.09_PT043H.grib2 2026-05-04 02:54 577K
20260504T00Z_MSC_RDPS_SpecificHumidity_IsbL-0600_RLatLon0.09_PT043H.grib2 2026-05-04 02:54 626K
20260504T00Z_MSC_RDPS_SpecificHumidity_IsbL-0650_RLatLon0.09_PT043H.grib2 2026-05-04 02:54 546K
20260504T00Z_MSC_RDPS_SpecificHumidity_IsbL-0700_RLatLon0.09_PT043H.grib2 2026-05-04 02:54 593K
20260504T00Z_MSC_RDPS_SpecificHumidity_IsbL-0750_RLatLon0.09_PT043H.grib2 2026-05-04 02:54 652K
20260504T00Z_MSC_RDPS_SpecificHumidity_IsbL-0800_RLatLon0.09_PT043H.grib2 2026-05-04 02:54 736K
20260504T00Z_MSC_RDPS_SpecificHumidity_IsbL-0850_RLatLon0.09_PT043H.grib2 2026-05-04 02:54 816K
20260504T00Z_MSC_RDPS_SpecificHumidity_IsbL-0875_RLatLon0.09_PT043H.grib2 2026-05-04 02:54 843K
20260504T00Z_MSC_RDPS_SpecificHumidity_IsbL-0900_RLatLon0.09_PT043H.grib2 2026-05-04 02:54 717K
20260504T00Z_MSC_RDPS_SpecificHumidity_IsbL-0925_RLatLon0.09_PT043H.grib2 2026-05-04 02:54 716K
20260504T00Z_MSC_RDPS_SpecificHumidity_IsbL-0950_RLatLon0.09_PT043H.grib2 2026-05-04 02:54 714K
20260504T00Z_MSC_RDPS_SpecificHumidity_IsbL-0970_RLatLon0.09_PT043H.grib2 2026-05-04 02:54 709K
20260504T00Z_MSC_RDPS_SpecificHumidity_IsbL-0985_RLatLon0.09_PT043H.grib2 2026-05-04 02:54 704K
20260504T00Z_MSC_RDPS_SpecificHumidity_IsbL-1000_RLatLon0.09_PT043H.grib2 2026-05-04 02:54 698K
20260504T00Z_MSC_RDPS_SpecificHumidity_IsbL-1015_RLatLon0.09_PT043H.grib2 2026-05-04 02:54 690K
20260504T00Z_MSC_RDPS_SpecificHumidity_Sfc_RLatLon0.09_PT043H.grib2 2026-05-04 02:54 344K
20260504T00Z_MSC_RDPS_StormRelativeHelicity_EtaL-10000_RLatLon0.09_PT043H.grib2 2026-05-04 02:54 1.1M
20260504T00Z_MSC_RDPS_StormSeverityIndex_EtaL-10000_RLatLon0.09_PT043H.grib2 2026-05-04 02:54 1.2M
20260504T00Z_MSC_RDPS_Thickness_IsbL-0850to0700_RLatLon0.09_PT043H.grib2 2026-05-04 02:54 182K
20260504T00Z_MSC_RDPS_Thickness_IsbL-1000to0500_RLatLon0.09_PT043H.grib2 2026-05-04 02:54 202K
20260504T00Z_MSC_RDPS_Thickness_IsbL-1000to0850_RLatLon0.09_PT043H.grib2 2026-05-04 02:54 190K
20260504T00Z_MSC_RDPS_TotalCloudCover_Sfc_RLatLon0.09_PT043H.grib2 2026-05-04 02:54 648K
20260504T00Z_MSC_RDPS_TotalTotalsIndex_Sfc_RLatLon0.09_PT043H.grib2 2026-05-04 02:54 2.5M
20260504T00Z_MSC_RDPS_UVIndex-ClearSky_Sfc_RLatLon0.09_PT043H.grib2 2026-05-04 02:54 228K
20260504T00Z_MSC_RDPS_UVIndex_Sfc_RLatLon0.09_PT043H.grib2 2026-05-04 02:54 538K
20260504T00Z_MSC_RDPS_UpwardLongwaveRadiationFlux_NTAtm_RLatLon0.09_PT043H.grib2 2026-05-04 02:54 380K
20260504T00Z_MSC_RDPS_UpwardShortwaveRadiationFlux_NTAtm_RLatLon0.09_PT043H.grib2 2026-05-04 02:54 565K
20260504T00Z_MSC_RDPS_VerticalVelocity_IsbL-0250_RLatLon0.09_PT043H.grib2 2026-05-04 02:54 461K
20260504T00Z_MSC_RDPS_VerticalVelocity_IsbL-0500_RLatLon0.09_PT043H.grib2 2026-05-04 02:54 551K
20260504T00Z_MSC_RDPS_VerticalVelocity_IsbL-0700_RLatLon0.09_PT043H.grib2 2026-05-04 02:54 605K
20260504T00Z_MSC_RDPS_VerticalVelocity_IsbL-0850_RLatLon0.09_PT043H.grib2 2026-05-04 02:54 711K
20260504T00Z_MSC_RDPS_VerticalWindShear_EtaL-6500_RLatLon0.09_PT043H.grib2 2026-05-04 02:54 1.2M
20260504T00Z_MSC_RDPS_WindChill_Sfc_RLatLon0.09_PT043H.grib2 2026-05-04 02:54 1.2M
20260504T00Z_MSC_RDPS_WindDir_AGL-10m_RLatLon0.09_PT043H.grib2 2026-05-04 02:54 950K
20260504T00Z_MSC_RDPS_WindDir_AGL-120m_RLatLon0.09_PT043H.grib2 2026-05-04 02:54 597K
20260504T00Z_MSC_RDPS_WindDir_AGL-40m_RLatLon0.09_PT043H.grib2 2026-05-04 02:54 618K
20260504T00Z_MSC_RDPS_WindDir_AGL-80m_RLatLon0.09_PT043H.grib2 2026-05-04 02:54 606K
20260504T00Z_MSC_RDPS_WindDir_IsbL-0001_RLatLon0.09_PT043H.grib2 2026-05-04 02:54 310K
20260504T00Z_MSC_RDPS_WindDir_IsbL-0005_RLatLon0.09_PT043H.grib2 2026-05-04 02:54 380K
20260504T00Z_MSC_RDPS_WindDir_IsbL-0010_RLatLon0.09_PT043H.grib2 2026-05-04 02:54 392K
20260504T00Z_MSC_RDPS_WindDir_IsbL-0020_RLatLon0.09_PT043H.grib2 2026-05-04 02:54 407K
20260504T00Z_MSC_RDPS_WindDir_IsbL-0030_RLatLon0.09_PT043H.grib2 2026-05-04 02:54 422K
20260504T00Z_MSC_RDPS_WindDir_IsbL-0050_RLatLon0.09_PT043H.grib2 2026-05-04 02:54 435K
20260504T00Z_MSC_RDPS_WindDir_IsbL-0100_RLatLon0.09_PT043H.grib2 2026-05-04 02:54 424K
20260504T00Z_MSC_RDPS_WindDir_IsbL-0150_RLatLon0.09_PT043H.grib2 2026-05-04 02:54 422K
20260504T00Z_MSC_RDPS_WindDir_IsbL-0175_RLatLon0.09_PT043H.grib2 2026-05-04 02:54 444K
20260504T00Z_MSC_RDPS_WindDir_IsbL-0200_RLatLon0.09_PT043H.grib2 2026-05-04 02:54 454K
20260504T00Z_MSC_RDPS_WindDir_IsbL-0225_RLatLon0.09_PT043H.grib2 2026-05-04 02:54 454K
20260504T00Z_MSC_RDPS_WindDir_IsbL-0250_RLatLon0.09_PT043H.grib2 2026-05-04 02:54 454K
20260504T00Z_MSC_RDPS_WindDir_IsbL-0275_RLatLon0.09_PT043H.grib2 2026-05-04 02:54 470K
20260504T00Z_MSC_RDPS_WindDir_IsbL-0300_RLatLon0.09_PT043H.grib2 2026-05-04 02:54 469K
20260504T00Z_MSC_RDPS_WindDir_IsbL-0350_RLatLon0.09_PT043H.grib2 2026-05-04 02:54 493K
20260504T00Z_MSC_RDPS_WindDir_IsbL-0400_RLatLon0.09_PT043H.grib2 2026-05-04 02:54 509K
20260504T00Z_MSC_RDPS_WindDir_IsbL-0450_RLatLon0.09_PT043H.grib2 2026-05-04 02:54 530K
20260504T00Z_MSC_RDPS_WindDir_IsbL-0500_RLatLon0.09_PT043H.grib2 2026-05-04 02:54 538K
20260504T00Z_MSC_RDPS_WindDir_IsbL-0550_RLatLon0.09_PT043H.grib2 2026-05-04 02:54 552K
20260504T00Z_MSC_RDPS_WindDir_IsbL-0600_RLatLon0.09_PT043H.grib2 2026-05-04 02:54 577K
20260504T00Z_MSC_RDPS_WindDir_IsbL-0650_RLatLon0.09_PT043H.grib2 2026-05-04 02:54 623K
20260504T00Z_MSC_RDPS_WindDir_IsbL-0700_RLatLon0.09_PT043H.grib2 2026-05-04 02:54 672K
20260504T00Z_MSC_RDPS_WindDir_IsbL-0750_RLatLon0.09_PT043H.grib2 2026-05-04 02:54 721K
20260504T00Z_MSC_RDPS_WindDir_IsbL-0800_RLatLon0.09_PT043H.grib2 2026-05-04 02:54 783K
20260504T00Z_MSC_RDPS_WindDir_IsbL-0850_RLatLon0.09_PT043H.grib2 2026-05-04 02:54 863K
20260504T00Z_MSC_RDPS_WindDir_IsbL-0875_RLatLon0.09_PT043H.grib2 2026-05-04 02:54 893K
20260504T00Z_MSC_RDPS_WindDir_IsbL-0900_RLatLon0.09_PT043H.grib2 2026-05-04 02:54 904K
20260504T00Z_MSC_RDPS_WindDir_IsbL-0925_RLatLon0.09_PT043H.grib2 2026-05-04 02:54 908K
20260504T00Z_MSC_RDPS_WindDir_IsbL-0950_RLatLon0.09_PT043H.grib2 2026-05-04 02:54 900K
20260504T00Z_MSC_RDPS_WindDir_IsbL-0970_RLatLon0.09_PT043H.grib2 2026-05-04 02:54 905K
20260504T00Z_MSC_RDPS_WindDir_IsbL-0985_RLatLon0.09_PT043H.grib2 2026-05-04 02:54 913K
20260504T00Z_MSC_RDPS_WindDir_IsbL-1000_RLatLon0.09_PT043H.grib2 2026-05-04 02:54 925K
20260504T00Z_MSC_RDPS_WindDir_IsbL-1015_RLatLon0.09_PT043H.grib2 2026-05-04 02:54 941K
20260504T00Z_MSC_RDPS_WindGust-Max_AGL-10m_RLatLon0.09_PT043H.grib2 2026-05-04 02:54 1.0M
20260504T00Z_MSC_RDPS_WindGust-Min_AGL-10m_RLatLon0.09_PT043H.grib2 2026-05-04 02:54 1.0M
20260504T00Z_MSC_RDPS_WindGust_AGL-10m_RLatLon0.09_PT043H.grib2 2026-05-04 02:54 1.0M
20260504T00Z_MSC_RDPS_WindSpeed_AGL-10m_RLatLon0.09_PT043H.grib2 2026-05-04 02:54 851K
20260504T00Z_MSC_RDPS_WindSpeed_AGL-120m_RLatLon0.09_PT043H.grib2 2026-05-04 02:54 541K
20260504T00Z_MSC_RDPS_WindSpeed_AGL-40m_RLatLon0.09_PT043H.grib2 2026-05-04 02:54 548K
20260504T00Z_MSC_RDPS_WindSpeed_AGL-80m_RLatLon0.09_PT043H.grib2 2026-05-04 02:54 543K
20260504T00Z_MSC_RDPS_WindSpeed_IsbL-0001_RLatLon0.09_PT043H.grib2 2026-05-04 02:54 259K
20260504T00Z_MSC_RDPS_WindSpeed_IsbL-0005_RLatLon0.09_PT043H.grib2 2026-05-04 02:54 388K
20260504T00Z_MSC_RDPS_WindSpeed_IsbL-0010_RLatLon0.09_PT043H.grib2 2026-05-04 02:54 402K
20260504T00Z_MSC_RDPS_WindSpeed_IsbL-0020_RLatLon0.09_PT043H.grib2 2026-05-04 02:54 422K
20260504T00Z_MSC_RDPS_WindSpeed_IsbL-0030_RLatLon0.09_PT043H.grib2 2026-05-04 02:54 322K
20260504T00Z_MSC_RDPS_WindSpeed_IsbL-0050_RLatLon0.09_PT043H.grib2 2026-05-04 02:54 352K
20260504T00Z_MSC_RDPS_WindSpeed_IsbL-0100_RLatLon0.09_PT043H.grib2 2026-05-04 02:54 477K
20260504T00Z_MSC_RDPS_WindSpeed_IsbL-0150_RLatLon0.09_PT043H.grib2 2026-05-04 02:54 383K
20260504T00Z_MSC_RDPS_WindSpeed_IsbL-0175_RLatLon0.09_PT043H.grib2 2026-05-04 02:54 430K
20260504T00Z_MSC_RDPS_WindSpeed_IsbL-0200_RLatLon0.09_PT043H.grib2 2026-05-04 02:54 443K
20260504T00Z_MSC_RDPS_WindSpeed_IsbL-0225_RLatLon0.09_PT043H.grib2 2026-05-04 02:54 446K
20260504T00Z_MSC_RDPS_WindSpeed_IsbL-0250_RLatLon0.09_PT043H.grib2 2026-05-04 02:54 449K
20260504T00Z_MSC_RDPS_WindSpeed_IsbL-0275_RLatLon0.09_PT043H.grib2 2026-05-04 02:54 464K
20260504T00Z_MSC_RDPS_WindSpeed_IsbL-0300_RLatLon0.09_PT043H.grib2 2026-05-04 02:54 463K
20260504T00Z_MSC_RDPS_WindSpeed_IsbL-0350_RLatLon0.09_PT043H.grib2 2026-05-04 02:54 475K
20260504T00Z_MSC_RDPS_WindSpeed_IsbL-0400_RLatLon0.09_PT043H.grib2 2026-05-04 02:54 480K
20260504T00Z_MSC_RDPS_WindSpeed_IsbL-0450_RLatLon0.09_PT043H.grib2 2026-05-04 02:54 466K
20260504T00Z_MSC_RDPS_WindSpeed_IsbL-0500_RLatLon0.09_PT043H.grib2 2026-05-04 02:54 465K
20260504T00Z_MSC_RDPS_WindSpeed_IsbL-0550_RLatLon0.09_PT043H.grib2 2026-05-04 02:54 465K
20260504T00Z_MSC_RDPS_WindSpeed_IsbL-0600_RLatLon0.09_PT043H.grib2 2026-05-04 02:54 591K
20260504T00Z_MSC_RDPS_WindSpeed_IsbL-0650_RLatLon0.09_PT043H.grib2 2026-05-04 02:54 615K
20260504T00Z_MSC_RDPS_WindSpeed_IsbL-0700_RLatLon0.09_PT043H.grib2 2026-05-04 02:54 638K
20260504T00Z_MSC_RDPS_WindSpeed_IsbL-0750_RLatLon0.09_PT043H.grib2 2026-05-04 02:54 712K
20260504T00Z_MSC_RDPS_WindSpeed_IsbL-0800_RLatLon0.09_PT043H.grib2 2026-05-04 02:54 763K
20260504T00Z_MSC_RDPS_WindSpeed_IsbL-0850_RLatLon0.09_PT043H.grib2 2026-05-04 02:54 827K
20260504T00Z_MSC_RDPS_WindSpeed_IsbL-0875_RLatLon0.09_PT043H.grib2 2026-05-04 02:54 852K
20260504T00Z_MSC_RDPS_WindSpeed_IsbL-0900_RLatLon0.09_PT043H.grib2 2026-05-04 02:54 868K
20260504T00Z_MSC_RDPS_WindSpeed_IsbL-0925_RLatLon0.09_PT043H.grib2 2026-05-04 02:54 877K
20260504T00Z_MSC_RDPS_WindSpeed_IsbL-0950_RLatLon0.09_PT043H.grib2 2026-05-04 02:54 874K
20260504T00Z_MSC_RDPS_WindSpeed_IsbL-0970_RLatLon0.09_PT043H.grib2 2026-05-04 02:54 874K
20260504T00Z_MSC_RDPS_WindSpeed_IsbL-0985_RLatLon0.09_PT043H.grib2 2026-05-04 02:54 868K
20260504T00Z_MSC_RDPS_WindSpeed_IsbL-1000_RLatLon0.09_PT043H.grib2 2026-05-04 02:54 859K
20260504T00Z_MSC_RDPS_WindSpeed_IsbL-1015_RLatLon0.09_PT043H.grib2 2026-05-04 02:54 852K
20260504T00Z_MSC_RDPS_WindU_AGL-10m_RLatLon0.09_PT043H.grib2 2026-05-04 02:54 440K
20260504T00Z_MSC_RDPS_WindU_AGL-120m_RLatLon0.09_PT043H.grib2 2026-05-04 02:54 422K
20260504T00Z_MSC_RDPS_WindU_AGL-40m_RLatLon0.09_PT043H.grib2 2026-05-04 02:54 543K
20260504T00Z_MSC_RDPS_WindU_AGL-80m_RLatLon0.09_PT043H.grib2 2026-05-04 02:54 540K
20260504T00Z_MSC_RDPS_WindU_IsbL-0001_RLatLon0.09_PT043H.grib2 2026-05-04 02:54 295K
20260504T00Z_MSC_RDPS_WindU_IsbL-0005_RLatLon0.09_PT043H.grib2 2026-05-04 02:54 285K
20260504T00Z_MSC_RDPS_WindU_IsbL-0010_RLatLon0.09_PT043H.grib2 2026-05-04 02:54 299K
20260504T00Z_MSC_RDPS_WindU_IsbL-0020_RLatLon0.09_PT043H.grib2 2026-05-04 02:54 355K
20260504T00Z_MSC_RDPS_WindU_IsbL-0030_RLatLon0.09_PT043H.grib2 2026-05-04 02:54 315K
20260504T00Z_MSC_RDPS_WindU_IsbL-0050_RLatLon0.09_PT043H.grib2 2026-05-04 02:54 382K
20260504T00Z_MSC_RDPS_WindU_IsbL-0100_RLatLon0.09_PT043H.grib2 2026-05-04 02:54 335K
20260504T00Z_MSC_RDPS_WindU_IsbL-0150_RLatLon0.09_PT043H.grib2 2026-05-04 02:54 399K
20260504T00Z_MSC_RDPS_WindU_IsbL-0175_RLatLon0.09_PT043H.grib2 2026-05-04 02:54 423K
20260504T00Z_MSC_RDPS_WindU_IsbL-0200_RLatLon0.09_PT043H.grib2 2026-05-04 02:54 339K
20260504T00Z_MSC_RDPS_WindU_IsbL-0225_RLatLon0.09_PT043H.grib2 2026-05-04 02:54 340K
20260504T00Z_MSC_RDPS_WindU_IsbL-0250_RLatLon0.09_PT043H.grib2 2026-05-04 02:54 339K
20260504T00Z_MSC_RDPS_WindU_IsbL-0275_RLatLon0.09_PT043H.grib2 2026-05-04 02:54 353K
20260504T00Z_MSC_RDPS_WindU_IsbL-0300_RLatLon0.09_PT043H.grib2 2026-05-04 02:54 350K
20260504T00Z_MSC_RDPS_WindU_IsbL-0350_RLatLon0.09_PT043H.grib2 2026-05-04 02:54 360K
20260504T00Z_MSC_RDPS_WindU_IsbL-0400_RLatLon0.09_PT043H.grib2 2026-05-04 02:54 365K
20260504T00Z_MSC_RDPS_WindU_IsbL-0450_RLatLon0.09_PT043H.grib2 2026-05-04 02:54 470K
20260504T00Z_MSC_RDPS_WindU_IsbL-0500_RLatLon0.09_PT043H.grib2 2026-05-04 02:54 471K
20260504T00Z_MSC_RDPS_WindU_IsbL-0550_RLatLon0.09_PT043H.grib2 2026-05-04 02:54 471K
20260504T00Z_MSC_RDPS_WindU_IsbL-0600_RLatLon0.09_PT043H.grib2 2026-05-04 02:54 482K
20260504T00Z_MSC_RDPS_WindU_IsbL-0650_RLatLon0.09_PT043H.grib2 2026-05-04 02:54 503K
20260504T00Z_MSC_RDPS_WindU_IsbL-0700_RLatLon0.09_PT043H.grib2 2026-05-04 02:54 508K
20260504T00Z_MSC_RDPS_WindU_IsbL-0750_RLatLon0.09_PT043H.grib2 2026-05-04 02:54 535K
20260504T00Z_MSC_RDPS_WindU_IsbL-0800_RLatLon0.09_PT043H.grib2 2026-05-04 02:54 578K
20260504T00Z_MSC_RDPS_WindU_IsbL-0850_RLatLon0.09_PT043H.grib2 2026-05-04 02:54 635K
20260504T00Z_MSC_RDPS_WindU_IsbL-0875_RLatLon0.09_PT043H.grib2 2026-05-04 02:54 656K
20260504T00Z_MSC_RDPS_WindU_IsbL-0900_RLatLon0.09_PT043H.grib2 2026-05-04 02:54 666K
20260504T00Z_MSC_RDPS_WindU_IsbL-0925_RLatLon0.09_PT043H.grib2 2026-05-04 02:54 672K
20260504T00Z_MSC_RDPS_WindU_IsbL-0950_RLatLon0.09_PT043H.grib2 2026-05-04 02:54 666K
20260504T00Z_MSC_RDPS_WindU_IsbL-0970_RLatLon0.09_PT043H.grib2 2026-05-04 02:54 663K
20260504T00Z_MSC_RDPS_WindU_IsbL-0985_RLatLon0.09_PT043H.grib2 2026-05-04 02:54 799K
20260504T00Z_MSC_RDPS_WindU_IsbL-1000_RLatLon0.09_PT043H.grib2 2026-05-04 02:54 794K
20260504T00Z_MSC_RDPS_WindU_IsbL-1015_RLatLon0.09_PT043H.grib2 2026-05-04 02:54 790K
20260504T00Z_MSC_RDPS_WindV_AGL-10m_RLatLon0.09_PT043H.grib2 2026-05-04 02:54 439K
20260504T00Z_MSC_RDPS_WindV_AGL-120m_RLatLon0.09_PT043H.grib2 2026-05-04 02:54 421K
20260504T00Z_MSC_RDPS_WindV_AGL-40m_RLatLon0.09_PT043H.grib2 2026-05-04 02:54 542K
20260504T00Z_MSC_RDPS_WindV_AGL-80m_RLatLon0.09_PT043H.grib2 2026-05-04 02:54 422K
20260504T00Z_MSC_RDPS_WindV_IsbL-0001_RLatLon0.09_PT043H.grib2 2026-05-04 02:54 250K
20260504T00Z_MSC_RDPS_WindV_IsbL-0005_RLatLon0.09_PT043H.grib2 2026-05-04 02:54 291K
20260504T00Z_MSC_RDPS_WindV_IsbL-0010_RLatLon0.09_PT043H.grib2 2026-05-04 02:54 303K
20260504T00Z_MSC_RDPS_WindV_IsbL-0020_RLatLon0.09_PT043H.grib2 2026-05-04 02:54 413K
20260504T00Z_MSC_RDPS_WindV_IsbL-0030_RLatLon0.09_PT043H.grib2 2026-05-04 02:54 318K
20260504T00Z_MSC_RDPS_WindV_IsbL-0050_RLatLon0.09_PT043H.grib2 2026-05-04 02:54 347K
20260504T00Z_MSC_RDPS_WindV_IsbL-0100_RLatLon0.09_PT043H.grib2 2026-05-04 02:54 333K
20260504T00Z_MSC_RDPS_WindV_IsbL-0150_RLatLon0.09_PT043H.grib2 2026-05-04 02:54 396K
20260504T00Z_MSC_RDPS_WindV_IsbL-0175_RLatLon0.09_PT043H.grib2 2026-05-04 02:54 326K
20260504T00Z_MSC_RDPS_WindV_IsbL-0200_RLatLon0.09_PT043H.grib2 2026-05-04 02:54 337K
20260504T00Z_MSC_RDPS_WindV_IsbL-0225_RLatLon0.09_PT043H.grib2 2026-05-04 02:54 340K
20260504T00Z_MSC_RDPS_WindV_IsbL-0250_RLatLon0.09_PT043H.grib2 2026-05-04 02:54 341K
20260504T00Z_MSC_RDPS_WindV_IsbL-0275_RLatLon0.09_PT043H.grib2 2026-05-04 02:54 353K
20260504T00Z_MSC_RDPS_WindV_IsbL-0300_RLatLon0.09_PT043H.grib2 2026-05-04 02:54 351K
20260504T00Z_MSC_RDPS_WindV_IsbL-0350_RLatLon0.09_PT043H.grib2 2026-05-04 02:54 360K
20260504T00Z_MSC_RDPS_WindV_IsbL-0400_RLatLon0.09_PT043H.grib2 2026-05-04 02:54 363K
20260504T00Z_MSC_RDPS_WindV_IsbL-0450_RLatLon0.09_PT043H.grib2 2026-05-04 02:54 365K
20260504T00Z_MSC_RDPS_WindV_IsbL-0500_RLatLon0.09_PT043H.grib2 2026-05-04 02:54 468K
20260504T00Z_MSC_RDPS_WindV_IsbL-0550_RLatLon0.09_PT043H.grib2 2026-05-04 02:54 468K
20260504T00Z_MSC_RDPS_WindV_IsbL-0600_RLatLon0.09_PT043H.grib2 2026-05-04 02:54 478K
20260504T00Z_MSC_RDPS_WindV_IsbL-0650_RLatLon0.09_PT043H.grib2 2026-05-04 02:54 497K
20260504T00Z_MSC_RDPS_WindV_IsbL-0700_RLatLon0.09_PT043H.grib2 2026-05-04 02:54 518K
20260504T00Z_MSC_RDPS_WindV_IsbL-0750_RLatLon0.09_PT043H.grib2 2026-05-04 02:54 543K
20260504T00Z_MSC_RDPS_WindV_IsbL-0800_RLatLon0.09_PT043H.grib2 2026-05-04 02:54 584K
20260504T00Z_MSC_RDPS_WindV_IsbL-0850_RLatLon0.09_PT043H.grib2 2026-05-04 02:54 628K
20260504T00Z_MSC_RDPS_WindV_IsbL-0875_RLatLon0.09_PT043H.grib2 2026-05-04 02:54 651K
20260504T00Z_MSC_RDPS_WindV_IsbL-0900_RLatLon0.09_PT043H.grib2 2026-05-04 02:54 664K
20260504T00Z_MSC_RDPS_WindV_IsbL-0925_RLatLon0.09_PT043H.grib2 2026-05-04 02:54 669K
20260504T00Z_MSC_RDPS_WindV_IsbL-0950_RLatLon0.09_PT043H.grib2 2026-05-04 02:54 664K
20260504T00Z_MSC_RDPS_WindV_IsbL-0970_RLatLon0.09_PT043H.grib2 2026-05-04 02:54 664K
20260504T00Z_MSC_RDPS_WindV_IsbL-0985_RLatLon0.09_PT043H.grib2 2026-05-04 02:54 661K
20260504T00Z_MSC_RDPS_WindV_IsbL-1000_RLatLon0.09_PT043H.grib2 2026-05-04 02:54 656K
20260504T00Z_MSC_RDPS_WindV_IsbL-1015_RLatLon0.09_PT043H.grib2 2026-05-04 02:54 790K